Location: eljas
(40.1958°N, 6.8661°W)
Time: 02:57:29
(UTC+01:00)

Daily predictions for brighter satellites

Satellite Brightness Start Highest point End
(mag) Time Altitude Azimuth Time Altitude Azimuth Time Altitude Azimuth
Cosmos 1980 Rocket 3.3 05:07:27 41° E 05:07:27 41° E 05:12:16 10° NE
Okean O Rocket 3.8 05:06:12 10° NE 05:08:36 24° ENE 05:08:36 24° ENE
ATLAS 5 CENTAUR R/B 4.0 05:13:17 17° ESE 05:13:46 17° ESE 05:16:52 10° ENE
USA 215 3.8 05:18:25 10° SE 05:22:47 43° SSE 05:22:47 43° SSE
Cosmos 2239 Rocket 4.3 05:34:03 84° SE 05:34:11 86° E 05:40:22 10° N
Cosmos 1697 Rocket 3.4 05:37:48 44° N 05:37:48 44° N 05:41:43 10° NNE
CZ-3 R/B 3.7 05:34:53 38° WSW 05:42:25 51° SSW 05:50:34 10° ESE
SL-16 R/B 4.1 05:39:36 10° SSE 05:44:18 27° ESE 05:49:00 10° NE
Cosmos 1125 Rocket 3.8 05:45:11 50° SSE 05:46:16 62° ESE 05:51:24 10° NNE
SJ 16-02 2.0 05:48:09 50° NE 05:48:09 50° NE 05:51:32 10° NNE
BREEZE-M DEB (TANK) 3.9 05:55:57 26° NNE 05:56:18 26° NNE 06:01:17 10° E
COSMO-SKYMED 1 4.4 06:00:16 10° SE 06:04:04 31° ENE 06:07:53 10° N
COSMOS 2455 3.1 05:58:07 10° NNW 06:04:09 70° ENE 06:10:09 10° SE
SEDSat Delta rocket 4.4 06:04:30 29° S 06:04:30 29° S 06:08:22 10° SE
Cosmos 1933 3.4 06:05:01 75° ESE 06:05:09 76° E 06:09:13 10° N
SJ-6F 4.4 06:02:06 10° NNE 06:06:12 81° ESE 06:06:30 74° SSE
Meteor 1-31 Rocket 3.6 06:02:33 10° N 06:05:10 42° N 06:05:10 42° N
Hubble Space Telescope 3.0 06:07:29 16° S 06:07:29 16° S 06:09:29 10° SE
ADEOS II 4.2 06:07:18 10° NNW 06:08:04 13° NNW 06:08:04 13° NNW
CZ-4B R/B 3.1 06:06:31 10° N 06:12:00 79° WNW 06:15:59 20° SSW
CZ-2C R/B 4.3 06:11:19 10° SSE 06:15:55 60° ENE 06:20:27 10° N
Cosmos 1934 Rocket 4.0 06:14:42 22° SSW 06:18:52 58° W 06:25:10 10° N
Cosmos 468 4.4 06:16:19 23° NNW 06:19:29 60° WSW 06:24:36 10° S
Cosmos 2263 Rocket 3.4 06:17:57 10° N 06:23:20 42° ENE 06:28:42 10° SE
Cosmos 1707 Rocket 4.1 06:25:35 39° NW 06:25:35 39° NW 06:29:04 10° N
IRS-1C Rocket 4.0 06:20:20 10° N 06:25:37 75° WNW 06:30:51 10° SSW
Meteor 2-10 Rocket 4.1 06:26:39 34° NW 06:26:39 34° NW 06:30:33 10° N
CZ-4B DEB 4.5 06:26:32 10° N 06:31:44 45° WNW 06:34:23 26° SW
Cosmos 1269 Rocket 3.9 06:28:48 10° NNW 06:34:06 79° WSW 06:39:22 10° SSE
Cosmos 2123 Rocket 4.1 06:28:50 10° NNW 06:34:51 51° W 06:40:52 10° SSW
CZ-4B R/B 4.4 06:30:55 10° N 06:35:05 42° WNW 06:35:47 39° W
Cosmos 2322 Rocket 2.3 06:35:21 10° SSW 06:41:01 81° ESE 06:46:45 10° NNE
Cosmos 1633 3.9 06:38:00 10° N 06:41:30 42° E 06:44:59 10° SSE
USA 116 4.2 06:40:16 10° S 06:44:48 60° W 06:49:51 10° NNW
Lacrosse 5 rocket 3.4 06:47:14 12° SSW 06:47:14 12° SSW 06:47:56 10° SSW
Okean O Rocket 2.7 06:42:42 10° NNW 06:46:04 25° WNW 06:46:04 25° WNW
Cosmos 2360 Rocket 3.7 06:43:43 10° S 06:48:54 38° ESE 06:54:06 10° NE
PAYLOAD A 3.8 06:44:38 10° NNE 06:49:29 86° WNW 06:54:27 10° SSW
Cosmos 1980 Rocket 3.1 06:49:16 24° W 06:51:05 29° WNW 06:55:58 10° N
NOAA 6 3.9 06:46:21 10° N 06:51:32 80° WNW 06:56:39 10° SSW
SKYMED 2 3.4 06:47:37 10° S 06:51:57 77° WSW 06:56:19 10° NNW
Cosmos 405 Rocket 2.8 06:48:30 10° SSW 06:52:21 51° WNW 06:56:10 10° N
Cosmos 2227 4.4 06:47:26 10° NW 06:52:48 48° WSW 06:58:09 10° S
Meteor 1-25 Rocket 4.3 06:51:03 10° N 06:56:49 84° E 07:02:37 10° S
Cosmos 1153 Rocket 4.4 06:51:41 10° SSW 06:57:43 62° W 07:03:52 10° N
ATLAS 5 CENTAUR R/B 1.9 06:54:52 19° WSW 06:57:52 50° NW 07:02:43 10° NNE
USA 229 DEB 4.4 06:57:34 10° NNW 07:04:42 61° NE 07:11:58 10° SE
USA 229 4.4 06:57:41 10° NNW 07:04:48 60° NE 07:12:04 10° SE
Cosmos 2242 Rocket 4.2 07:06:09 10° SW 07:10:21 35° WNW 07:14:35 10° N
Cosmos 1703 Rocket 3.9 07:06:10 10° S 07:10:36 71° E 07:15:05 10° NNE
Cosmos 405 4.1 07:07:42 10° NW 07:10:38 24° W 07:13:33 10° SSW
Cosmos 1461 3.4 07:08:40 10° SSW 07:12:55 67° ESE 07:17:26 10° NE
EO 1 Del DPAF 3.2 07:11:09 10° SSE 07:14:58 85° WSW 07:18:49 10° NNW
ISS -1.1 07:12:37 10° S 07:15:02 19° SE 07:17:27 10° E
IDEFIX/ARIANE 42P 2.8 07:10:15 10° N 07:15:16 48° WNW 07:20:14 10° SW
Landsat 4 3.6 07:13:03 10° S 07:16:44 60° W 07:20:25 10° NNW
Lacrosse 4 Rocket 3.9 07:17:58 10° SSE 07:21:16 24° ESE 07:24:35 10° NE
Cosmos 2251 Rocket 3.7 07:16:04 10° NNW 07:21:23 80° ENE 07:26:43 10° SSE
Cosmos 1908 Rocket 3.5 07:21:01 10° NNW 07:25:23 65° W 07:29:40 10° S
SJ 16-02 3.3 07:25:12 10° WNW 07:26:15 11° WNW 07:27:34 10° NW
Cosmos 2322 4.4 07:21:37 10° S 07:27:10 61° ESE 07:32:45 10° NNE
SL-16 R/B 2.6 07:22:50 10° SW 07:28:10 41° WNW 07:33:31 10° N
Cosmos 1733 Rocket 4.1 07:24:55 10° NW 07:28:27 24° W 07:31:59 10° SW
SMAP 4.3 07:24:10 10° NNE 07:28:40 46° E 07:33:08 10° S
MSX 3.9 07:25:35 10° N 07:31:15 60° WNW 07:36:54 10° SSW
Aureole 2 Rocket 1.8 07:34:51 10° SSW 07:37:29 53° WNW 07:40:11 10° N
Cosmos 2100 Rocket 4.2 07:32:01 10° SSW 07:37:55 48° WNW 07:43:50 10° N
COSMO-SKYMED 1 3.7 07:36:50 10° SSW 07:40:14 22° W 07:43:39 10° NW
Okean 1-7 3.0 07:37:10 10° SSW 07:41:27 73° W 07:45:50 10° N
